• In Deutschland
  • Länderverzeichnis
  • Für 7 Tage
  • Wassertemperatur
  • Satellitenkarten
  • Wetterkarte
  • Widgets
  • user-avatar
    Anmelden

    Stündliche Wetter Biatris

    Heute, 20 September, Donnerstag

    Zeit Temperatur Niederschläge Wind Luftdruck Luftfeuchtigkeit
    00:00 +21°C° 0 mm 3 m/S 655 mmHg 23%
    01:00 +21°C° 0 mm 2 m/S 655 mmHg 24%
    02:00 +21°C° 0 mm 3 m/S 654 mmHg 25%
    03:00 +20°C° 0 mm 3 m/S 654 mmHg 26%
    04:00 +20°C° 0 mm 3 m/S 654 mmHg 26%
    05:00 +19°C° 0 mm 3 m/S 654 mmHg 26%
    06:00 +21°C° 0 mm 3 m/S 655 mmHg 25%
    07:00 +23°C° 0 mm 4 m/S 655 mmHg 24%
    08:00 +27°C° 0 mm 4 m/S 657 mmHg 18%
    09:00 +29°C° 0 mm 4 m/S 657 mmHg 16%
    10:00 +32°C° 0 mm 4 m/S 657 mmHg 13%
    11:00 +35°C° 0 mm 4 m/S 657 mmHg 11%
    12:00 +35°C° 0 mm 4 m/S 657 mmHg 10%
    13:00 +36°C° 0 mm 5 m/S 657 mmHg 9%
    14:00 +35°C° 0 mm 4 m/S 656 mmHg 11%
    15:00 +35°C° 0 mm 4 m/S 656 mmHg 11%
    16:00 +34°C° 0 mm 5 m/S 655 mmHg 12%
    17:00 +33°C° 0 mm 5 m/S 655 mmHg 12%
    18:00 +30°C° 0 mm 4 m/S 655 mmHg 16%
    19:00 +27°C° 0 mm 3 m/S 655 mmHg 20%
    20:00 +25°C° 0 mm 3 m/S 655 mmHg 24%
    21:00 +24°C° 0 mm 3 m/S 655 mmHg 26%
    22:00 +22°C° 0 mm 3 m/S 656 mmHg 29%
    23:00 +21°C° 0 mm 3 m/S 656 mmHg 31%

    Morgen, 21 September, Freitag

    Zeit Temperatur Niederschläge Wind Luftdruck Luftfeuchtigkeit
    00:00 +21°C° 0 mm 3 m/S 656 mmHg 38%
    01:00 +20°C° 0 mm 3 m/S 655 mmHg 46%
    02:00 +19°C° 0 mm 4 m/S 655 mmHg 53%
    03:00 +18°C° 0 mm 4 m/S 655 mmHg 61%
    04:00 +18°C° 0 mm 3 m/S 655 mmHg 69%
    05:00 +17°C° 0 mm 3 m/S 655 mmHg 76%
    06:00 +19°C° 0 mm 4 m/S 655 mmHg 66%
    07:00 +21°C° 0 mm 4 m/S 656 mmHg 56%
    08:00 +23°C° 0 mm 5 m/S 657 mmHg 46%
    09:00 +26°C° 0 mm 5 m/S 657 mmHg 38%
    10:00 +29°C° 0 mm 4 m/S 658 mmHg 30%
    11:00 +32°C° 0 mm 4 m/S 658 mmHg 22%
    12:00 +33°C° 0 mm 4 m/S 657 mmHg 20%
    13:00 +34°C° 0 mm 4 m/S 657 mmHg 19%
    14:00 +35°C° 0 mm 4 m/S 656 mmHg 17%
    15:00 +34°C° 0 mm 4 m/S 656 mmHg 18%
    16:00 +33°C° 0 mm 4 m/S 655 mmHg 19%
    17:00 +32°C° 0 mm 4 m/S 655 mmHg 20%
    18:00 +29°C° 0 mm 4 m/S 655 mmHg 23%
    19:00 +28°C° 0 mm 4 m/S 655 mmHg 27%
    20:00 +26°C° 0 mm 3 m/S 655 mmHg 30%
    21:00 +25°C° 0 mm 3 m/S 655 mmHg 34%
    22:00 +22°C° 0 mm 3 m/S 655 mmHg 38%
    23:00 +21°C° 0 mm 3 m/S 655 mmHg 42%

    übermorgen, 22 September, Samstag

    Zeit Temperatur Niederschläge Wind Luftdruck Luftfeuchtigkeit
    00:00 +20°C° 0 mm 3 m/S 655 mmHg 45%
    01:00 +19°C° 0 mm 3 m/S 655 mmHg 48%
    02:00 +19°C° 0 mm 2 m/S 654 mmHg 51%
    03:00 +18°C° 0 mm 2 m/S 654 mmHg 53%
    04:00 +17°C° 0 mm 2 m/S 654 mmHg 56%
    05:00 +17°C° 0 mm 2 m/S 654 mmHg 59%
    06:00 +19°C° 0 mm 2 m/S 655 mmHg 51%
    07:00 +21°C° 0 mm 3 m/S 656 mmHg 43%
    08:00 +25°C° 0 mm 3 m/S 657 mmHg 36%
    09:00 +27°C° 0 mm 3 m/S 657 mmHg 29%
    10:00 +30°C° 0 mm 3 m/S 658 mmHg 23%
    11:00 +33°C° 0 mm 3 m/S 658 mmHg 17%
    12:00 +34°C° 0 mm 3 m/S 657 mmHg 15%
    13:00 +34°C° 0 mm 3 m/S 656 mmHg 13%
    14:00 +35°C° 0 mm 3 m/S 656 mmHg 12%
    15:00 +34°C° 0 mm 4 m/S 655 mmHg 12%
    16:00 +34°C° 0 mm 4 m/S 655 mmHg 12%
    17:00 +33°C° 0 mm 4 m/S 655 mmHg 13%
    18:00 +29°C° 0 mm 4 m/S 655 mmHg 15%
    19:00 +27°C° 0 mm 4 m/S 655 mmHg 17%
    20:00 +25°C° 0 mm 4 m/S 655 mmHg 19%
    21:00 +23°C° 0 mm 4 m/S 655 mmHg 22%
    22:00 +22°C° 0 mm 4 m/S 655 mmHg 25%
    23:00 +21°C° 0 mm 4 m/S 655 mmHg 28%

    23 September, Sonntag

    Zeit Temperatur Niederschläge Wind Luftdruck Luftfeuchtigkeit
    00:00 +20°C° 0 mm 4 m/S 655 mmHg 31%
    01:00 +19°C° 0 mm 3 m/S 654 mmHg 35%
    02:00 +18°C° 0 mm 3 m/S 654 mmHg 38%
    03:00 +18°C° 0 mm 3 m/S 654 mmHg 42%
    04:00 +17°C° 0 mm 3 m/S 654 mmHg 46%
    05:00 +16°C° 0 mm 2 m/S 654 mmHg 50%
    06:00 +18°C° 0 mm 3 m/S 655 mmHg 44%
    07:00 +21°C° 0 mm 3 m/S 656 mmHg 38%
    08:00 +23°C° 0 mm 4 m/S 657 mmHg 32%
    09:00 +26°C° 0 mm 4 m/S 657 mmHg 26%
    10:00 +29°C° 0 mm 4 m/S 657 mmHg 20%
    11:00 +31°C° 0 mm 3 m/S 657 mmHg 13%
    12:00 +33°C° 0 mm 3 m/S 657 mmHg 12%
    13:00 +34°C° 0 mm 3 m/S 656 mmHg 11%
    14:00 +35°C° 0 mm 3 m/S 655 mmHg 10%
    15:00 +34°C° 0 mm 3 m/S 655 mmHg 10%
    16:00 +33°C° 0 mm 4 m/S 654 mmHg 11%
    17:00 +32°C° 0 mm 4 m/S 654 mmHg 11%
    18:00 +29°C° 0 mm 4 m/S 654 mmHg 14%
    19:00 +26°C° 0 mm 3 m/S 654 mmHg 18%
    20:00 +22°C° 0 mm 3 m/S 654 mmHg 21%
    21:00 +22°C° 0 mm 3 m/S 654 mmHg 26%
    22:00 +21°C° 0 mm 4 m/S 654 mmHg 30%
    23:00 +20°C° 0 mm 4 m/S 654 mmHg 34%

    24 September, Montag

    Zeit Temperatur Niederschläge Wind Luftdruck Luftfeuchtigkeit
    00:00 +19°C° 0 mm 3 m/S 654 mmHg 37%
    01:00 +19°C° 0 mm 3 m/S 653 mmHg 40%
    02:00 +18°C° 0 mm 3 m/S 653 mmHg 43%
    03:00 +18°C° 0 mm 3 m/S 653 mmHg 42%
    04:00 +17°C° 0 mm 3 m/S 653 mmHg 42%
    05:00 +17°C° 0 mm 2 m/S 653 mmHg 42%
    06:00 +19°C° 0 mm 3 m/S 654 mmHg 40%
    07:00 +21°C° 0 mm 4 m/S 655 mmHg 37%
    08:00 +25°C° 0 mm 4 m/S 656 mmHg 35%
    09:00 +27°C° 0 mm 4 m/S 656 mmHg 30%
    10:00 +29°C° 0 mm 4 m/S 656 mmHg 25%
    11:00 +33°C° 0 mm 3 m/S 656 mmHg 20%
    12:00 +33°C° 0 mm 3 m/S 656 mmHg 18%
    13:00 +34°C° 0 mm 3 m/S 655 mmHg 16%
    14:00 +35°C° 0 mm 2 m/S 654 mmHg 15%
    15:00 +35°C° 0 mm 3 m/S 654 mmHg 15%
    16:00 +34°C° 0 mm 3 m/S 654 mmHg 16%
    17:00 +33°C° 0 mm 3 m/S 653 mmHg 17%
    18:00 +30°C° 0 mm 3 m/S 653 mmHg 20%
    19:00 +27°C° 0 mm 3 m/S 653 mmHg 24%
    20:00 +25°C° 0 mm 3 m/S 653 mmHg 27%
    21:00 +25°C° 0 mm 3 m/S 654 mmHg 30%
    22:00 +24°C° 0 mm 3 m/S 654 mmHg 34%
    23:00 +23°C° 0 mm 4 m/S 654 mmHg 37%

    25 September, Dienstag

    Zeit Temperatur Niederschläge Wind Luftdruck Luftfeuchtigkeit
    00:00 +22°C° 0 mm 4 m/S 654 mmHg 41%
    01:00 +21°C° 0 mm 3 m/S 653 mmHg 44%
    02:00 +21°C° 0 mm 3 m/S 653 mmHg 47%
    03:00 +20°C° 0 mm 3 m/S 653 mmHg 48%
    04:00 +20°C° 0 mm 3 m/S 653 mmHg 49%
    05:00 +19°C° 0 mm 3 m/S 653 mmHg 51%
    06:00 +21°C° 0 mm 4 m/S 654 mmHg 45%
    07:00 +23°C° 0 mm 5 m/S 655 mmHg 40%
    08:00 +26°C° 0 mm 5 m/S 655 mmHg 34%
    09:00 +29°C° 0 mm 5 m/S 655 mmHg 29%
    10:00 +32°C° 0 mm 4 m/S 656 mmHg 24%
    11:00 +34°C° 0 mm 3 m/S 656 mmHg 19%
    12:00 +35°C° 0 mm 3 m/S 655 mmHg 18%
    13:00 +36°C° 0 mm 3 m/S 654 mmHg 16%
    14:00 +36°C° 0 mm 3 m/S 654 mmHg 15%
    15:00 +35°C° 0 mm 3 m/S 654 mmHg 16%
    16:00 +35°C° 0 mm 3 m/S 653 mmHg 17%
    17:00 +34°C° 0 mm 3 m/S 653 mmHg 18%
    18:00 +31°C° 0 mm 3 m/S 653 mmHg 21%
    19:00 +30°C° 0 mm 3 m/S 654 mmHg 23%
    20:00 +28°C° 0 mm 3 m/S 654 mmHg 26%
    21:00 +27°C° 0 mm 3 m/S 654 mmHg 29%
    22:00 +26°C° 0 mm 4 m/S 654 mmHg 31%
    23:00 +25°C° 0 mm 4 m/S 654 mmHg 34%
    Mehr zeigen